K0WOI Weather Reports


Display with metric or nautical units.
time (UTC)temp
F
wind
direction
speed
MPH
gust
MPH
rain 1hr
in
rain 24hr
in
rain mn
in
humidity
%
barometer
mb
20260502204556 63 310 3.0 3.0 0.00 0.00 0.00 32 1017.2
20260502204054 63 335 5.0 7.0 0.00 0.00 0.00 30 1017.3
20260502203551 63 314 1.0 2.0 0.00 0.00 0.00 33 1017.1
20260502203048 63 314 3.0 3.0 0.00 0.00 0.00 33 1017.5
20260502202544 62 298 2.0 2.0 0.00 0.00 0.00 33 1017.4
20260502202043 62 243 3.0 3.0 0.00 0.00 0.00 30 1017.4
20260502201538 62 268 2.0 2.0 0.00 0.00 0.00 34 1017.6
20260502201035 62 228 5.0 6.0 0.00 0.00 0.00 31 1017.8
20260502200530 62 228 2.0 2.0 0.00 0.00 0.00 31 1017.6
20260502200029 62 273 1.0 2.0 0.00 0.00 0.00 33 1017.8
20260502195526 62 234 3.0 5.0 0.00 0.00 0.00 30 1017.8
20260502195021 62 271 3.0 3.0 0.00 0.00 0.00 30 1017.8
20260502194519 62 322 3.0 3.0 0.00 0.00 0.00 32 1018.0
20260502194015 62 195 5.0 6.0 0.00 0.00 0.00 30 1018.0
20260502193512 61 315 2.0 3.0 0.00 0.00 0.00 32 1018.3
20260502193009 61 267 3.0 3.0 0.00 0.00 0.00 31 1018.1
20260502192505 60 201 3.0 5.0 0.00 0.00 0.00 33 1018.4
20260502192002 61 228 5.0 7.0 0.00 0.00 0.00 34 1018.5
20260502191500 60 291 5.0 7.0 0.00 0.00 0.00 34 1018.6
20260502190957 60 245 2.0 2.0 0.00 0.00 0.00 30 1018.5
20260502190454 60 224 4.0 6.0 0.00 0.00 0.00 31 1018.8
20260502185950 61 234 5.0 6.0 0.00 0.00 0.00 33 1018.8
20260502185446 60 316 2.0 2.0 0.00 0.00 0.00 33 1018.8
20260502184943 61 222 5.0 6.0 0.00 0.00 0.00 33 1018.8
20260502184438 60 260 1.0 1.0 0.00 0.00 0.00 33 1019.2
20260502183935 58 211 5.0 5.0 0.00 0.00 0.00 35 1018.9
20260502183431 59 226 3.0 3.0 0.00 0.00 0.00 34 1019.1
20260502182926 59 288 3.0 5.0 0.00 0.00 0.00 35 1019.1
20260502182422 59 270 2.0 2.0 0.00 0.00 0.00 36 1019.2
20260502181918 59 270 1.0 1.0 0.00 0.00 0.00 33 1019.2
20260502181417 59 228 3.0 3.0 0.00 0.00 0.00 33 1019.3
20260502180915 58 288 2.0 3.0 0.00 0.00 0.00 36 1019.2
20260502180412 58 315 3.0 3.0 0.00 0.00 0.00 34 1019.3
20260502170331 56 256 2.0 2.0 0.00 0.00 0.00 37 1020.1
20260502164318 55 325 3.0 3.0 0.00 0.00 0.00 37 1020.4
20260502163814 55 248 3.0 3.0 0.00 0.00 0.00 37 1020.3
20260502163310 55 323 1.0 1.0 0.00 0.00 0.00 37 1020.2
20260502162808 55 323 2.0 2.0 0.00 0.00 0.00 37 1020.4
20260502162305 56 322 1.0 1.0 0.00 0.00 0.00 41 1020.4
20260502161801 55 309 0.0 1.0 0.00 0.00 0.00 43 1020.6
20260502161257 54 334 3.0 3.0 0.00 0.00 0.00 41 1020.5
20260502160756 54 324 3.0 3.0 0.00 0.00 0.00 37 1020.6
20260502160255 54 311 2.0 3.0 0.00 0.00 0.00 41 1020.4
20260502152224 52 292 1.0 1.0 0.00 0.00 0.00 42 1020.7
20260502151721 52 319 3.0 3.0 0.00 0.00 0.00 42 1020.7
20260502151218 52 313 2.0 2.0 0.00 0.00 0.00 43 1020.7
20260502150715 51 303 3.0 5.0 0.00 0.00 0.00 46 1020.6
20260502150212 51 321 1.0 1.0 0.00 0.00 0.00 49 1020.8
20260502130601 37 315 0.0 1.0 0.00 0.00 0.00 80 1020.8
20260502123544 34 315 1.0 1.0 0.00 0.00 0.00 87 1020.7
20260502123040 34 315 0.0 1.0 0.00 0.00 0.00 88 1020.7
20260502122537 33 315 1.0 1.0 0.00 0.00 0.00 90 1020.7
20260502122034 33 315 0.0 0.0 0.00 0.00 0.00 92 1020.6
20260502121532 33 315 1.0 1.0 0.00 0.00 0.00 95 1020.7
20260502121029 32 315 0.0 0.0 0.00 0.00 0.00 97 1020.8
20260502120525 32 315 0.0 0.0 0.00 0.00 0.00 98 1020.7
20260502115520 32 315 0.0 0.0 0.00 0.00 0.00 99 1020.7
20260502115015 32 315 0.0 0.0 0.00 0.00 0.00 99 1020.6
20260502114513 32 315 0.0 0.0 0.00 0.00 0.00 99 1020.7
20260502114009 32 315 0.0 0.0 0.00 0.00 0.00 99 1020.3
20260502113507 32 315 0.0 0.0 0.00 0.00 0.00 99 1020.3
20260502113006 32 315 0.0 0.0 0.00 0.00 0.00 99 1020.4
20260502112503 32 315 0.0 0.0 0.00 0.00 0.00 99 1020.2
20260502112000 31 315 0.0 0.0 0.00 0.00 0.00 99 1020.2
20260502111457 32 315 0.0 0.0 0.00 0.00 0.00 98 1020.4
20260502110955 32 315 0.0 0.0 0.00 0.00 0.00 98 1020.3
20260502110452 32 315 0.0 0.0 0.00 0.00 0.00 98 1020.2
20260502105949 32 315 0.0 0.0 0.00 0.00 0.00 98 1020.1
20260502105447 32 315 0.0 0.0 0.00 0.00 0.00 97 1020.0
20260502104944 32 315 0.0 0.0 0.00 0.00 0.00 97 1020.2
20260502104441 32 315 0.0 0.0 0.00 0.00 0.00 97 1020.1
20260502103938 32 315 0.0 0.0 0.00 0.00 0.00 97 1019.9
20260502103436 32 315 0.0 0.0 0.00 0.00 0.00 97 1020.0
20260502102933 32 315 0.0 0.0 0.00 0.00 0.00 97 1020.0
20260502102430 32 315 0.0 0.0 0.00 0.00 0.00 96 1019.9
20260502101927 32 315 0.0 0.0 0.00 0.00 0.00 96 1019.7
20260502101425 32 315 0.0 0.0 0.00 0.00 0.00 96 1019.8
20260502100923 33 315 0.0 0.0 0.00 0.00 0.00 96 1019.9
20260502100422 33 315 0.0 0.0 0.00 0.00 0.00 96 1019.8
20260502091356 33 315 0.0 0.0 0.00 0.00 0.00 96 1019.8
20260502090854 33 315 0.0 0.0 0.00 0.00 0.00 96 1019.6
20260502090350 33 315 0.0 0.0 0.00 0.00 0.00 96 1019.6
20260502071245 35 315 0.0 0.0 0.00 0.00 0.00 97 1019.6
20260502070743 35 315 0.0 0.0 0.00 0.00 0.00 97 1019.7
20260502070240 35 315 0.0 0.0 0.00 0.00 0.00 97 1019.7
20260502065739 35 315 0.0 0.0 0.00 0.00 0.00 97 1019.7
20260502065236 35 315 0.0 0.0 0.00 0.00 0.00 97 1019.7
20260502064735 36 315 0.0 0.0 0.00 0.00 0.00 97 1019.8
20260502064232 36 315 0.0 0.0 0.00 0.00 0.00 96 1019.7
20260502063729 36 315 0.0 0.0 0.00 0.00 0.00 96 1019.7
20260502063227 36 315 0.0 0.0 0.00 0.00 0.00 96 1019.6
20260502062724 36 315 0.0 0.0 0.00 0.00 0.00 95 1019.7
20260502062222 36 315 0.0 0.0 0.00 0.00 0.00 95 1019.6
20260502061720 36 315 0.0 0.0 0.00 0.00 0.00 95 1019.7
20260502061217 36 315 0.0 0.0 0.00 0.00 0.00 95 1019.6
20260502060712 37 315 0.0 0.0 0.00 0.00 0.00 95 1019.7
20260502060209 36 315 0.0 0.0 0.00 0.00 0.00 95 1019.7
20260502055707 37 315 0.0 0.0 0.00 0.00 0.00 95 1019.7
20260502055204 37 315 0.0 0.0 0.00 0.00 0.00 95 1019.4
20260502054704 37 315 0.0 0.0 0.00 0.00 0.00 95 1019.6
20260502054200 37 315 0.0 0.0 0.00 0.00 0.00 95 1019.8
20260502053658 37 315 0.0 0.0 0.00 0.00 0.00 95 1019.6
20260502053154 38 315 0.0 0.0 0.00 0.00 0.00 94 1019.3
20260502052653 38 315 0.0 0.0 0.00 0.00 0.00 94 1019.3
20260502052151 38 315 0.0 0.0 0.00 0.00 0.00 93 1019.2
20260502051648 39 315 0.0 0.0 0.00 0.00 0.00 93 1019.4
20260502051146 38 315 0.0 0.0 0.00 0.00 0.00 92 1019.3
20260502050642 39 315 0.0 0.0 0.00 0.00 0.00 91 1019.3
20260502050139 38 315 0.0 0.0 0.00 0.00 0.00 91 1019.3
20260502045636 39 315 0.0 0.0 0.00 0.00 0.00 93 1019.3
20260502045133 39 315 0.0 0.0 0.00 0.00 0.00 93 1019.4
20260502044629 39 315 0.0 0.0 0.00 0.00 0.00 92 1019.2
20260502044126 39 315 0.0 0.0 0.00 0.00 0.00 91 1019.3
20260502043625 39 315 0.0 0.0 0.00 0.00 0.00 91 1019.1
20260502043121 39 315 0.0 0.0 0.00 0.00 0.00 90 1018.9
20260502042615 39 315 0.0 0.0 0.00 0.00 0.00 90 1019.0
20260502042112 40 315 0.0 0.0 0.00 0.00 0.00 91 1019.2
20260502041610 39 315 0.0 0.0 0.00 0.00 0.00 90 1019.1
20260502041107 40 315 0.0 0.0 0.00 0.00 0.00 90 1019.0
20260502040604 40 315 0.0 0.0 0.00 0.00 0.00 90 1019.2
20260502040101 40 315 0.0 0.0 0.00 0.00 0.00 89 1018.8
20260502035556 40 315 0.0 0.0 0.00 0.00 0.00 87 1019.2
20260502035054 41 315 0.0 0.0 0.00 0.00 0.00 85 1019.0
20260502034551 41 315 0.0 0.0 0.00 0.00 0.00 85 1019.1
20260502034050 42 315 0.0 0.0 0.00 0.00 0.00 83 1018.9
20260502033548 42 315 0.0 0.0 0.00 0.00 0.00 83 1019.1
20260502033045 43 315 0.0 0.0 0.00 0.00 0.00 81 1019.1
20260502032541 44 315 0.0 0.0 0.00 0.00 0.00 78 1018.9
20260502032038 44 315 0.0 0.0 0.00 0.00 0.00 73 1018.6
20260502031536 45 315 0.0 0.0 0.00 0.00 0.00 68 1018.6
20260502031033 44 315 0.0 0.0 0.00 0.00 0.00 67 1018.8
20260502030532 45 315 0.0 0.0 0.00 0.00 0.00 68 1018.7
20260502030029 45 315 0.0 0.0 0.00 0.00 0.00 68 1018.7
20260502025526 45 315 0.0 0.0 0.00 0.00 0.00 68 1018.7
20260502025025 46 315 0.0 0.0 0.00 0.00 0.00 69 1018.6
20260502024521 46 315 0.0 0.0 0.00 0.00 0.00 65 1018.6
20260502024020 46 315 0.0 0.0 0.00 0.00 0.00 65 1018.7
20260502023517 46 315 0.0 0.0 0.00 0.00 0.00 64 1018.3
20260502023014 47 315 0.0 0.0 0.00 0.00 0.00 64 1018.1
20260502022511 46 315 0.0 0.0 0.00 0.00 0.00 66 1018.4
20260502022009 47 315 0.0 0.0 0.00 0.00 0.00 67 1018.4
20260502021506 47 314 0.0 0.0 0.00 0.00 0.00 70 1018.4
20260502021002 47 314 0.0 0.0 0.00 0.00 0.00 72 1018.3
20260502020500 47 314 0.0 0.0 0.00 0.00 0.00 68 1018.3
20260502015956 47 314 0.0 0.0 0.00 0.00 0.00 71 1017.9
20260502015455 47 314 0.0 0.0 0.00 0.00 0.00 70 1018.0
20260502014951 47 314 0.0 0.0 0.00 0.00 0.00 68 1018.0
20260502014448 47 314 0.0 0.0 0.00 0.00 0.00 64 1017.9
20260502013944 48 314 0.0 0.0 0.00 0.00 0.00 63 1017.8
20260502013440 48 314 0.0 0.0 0.00 0.00 0.00 62 1017.9
20260502012937 48 314 0.0 0.0 0.00 0.00 0.00 61 1017.7
20260502012434 48 314 0.0 0.0 0.00 0.00 0.00 60 1017.6
20260502011932 48 314 0.0 0.0 0.00 0.00 0.00 60 1017.5
20260502011428 49 314 0.0 0.0 0.00 0.00 0.00 59 1017.5
20260502010925 49 314 0.0 0.0 0.00 0.00 0.00 58 1017.6
20260502010421 50 314 0.0 0.0 0.00 0.00 0.00 58 1017.4
20260502005918 50 314 0.0 0.0 0.00 0.00 0.00 57 1017.1
20260502005416 50 314 0.0 0.0 0.00 0.00 0.00 58 1017.4
20260502004914 51 314 0.0 0.0 0.00 0.00 0.00 56 1017.3
20260502004409 51 314 0.0 0.0 0.00 0.00 0.00 56 1017.0
20260502003907 52 314 0.0 0.0 0.00 0.00 0.00 53 1017.1
20260502003404 52 313 2.0 3.0 0.00 0.00 0.00 49 1016.9
20260502002900 53 314 2.0 2.0 0.00 0.00 0.00 51 1016.9
20260502002358 53 313 0.0 1.0 0.00 0.00 0.00 50 1016.9
20260502001855 54 310 1.0 2.0 0.00 0.00 0.00 49 1017.0
20260502001352 54 307 1.0 2.0 0.00 0.00 0.00 47 1016.9
20260502000850 55 314 1.0 2.0 0.00 0.00 0.00 47 1016.7
20260502000348 55 316 1.0 2.0 0.00 0.00 0.00 47 1016.8
20260501235844 54 315 1.0 1.0 0.00 0.00 0.00 47 1016.5
20260501235339 54 317 3.0 3.0 0.00 0.00 0.00 46 1016.8
20260501234835 54 318 1.0 1.0 0.00 0.00 0.00 48 1016.9
20260501234332 55 315 1.0 2.0 0.00 0.00 0.00 48 1016.7
20260501233831 55 314 0.0 1.0 0.00 0.00 0.00 47 1016.7
20260501233328 55 292 3.0 5.0 0.00 0.00 0.00 48 1016.5
20260501232823 54 310 2.0 2.0 0.00 0.00 0.00 47 1016.7
20260501232321 55 308 3.0 3.0 0.00 0.00 0.00 44 1016.7
20260501231818 55 319 1.0 2.0 0.00 0.00 0.00 50 1016.8
20260501231316 55 319 0.0 1.0 0.00 0.00 0.00 48 1016.8
20260501230814 55 320 1.0 1.0 0.00 0.00 0.00 47 1016.7
20260501230313 55 320 1.0 1.0 0.00 0.00 0.00 48 1016.8
20260501225810 55 321 1.0 1.0 0.00 0.00 0.00 46 1016.9
20260501225308 55 315 1.0 1.0 0.00 0.00 0.00 44 1016.6
20260501224803 55 313 1.0 1.0 0.00 0.00 0.00 47 1016.8
20260501224301 55 312 0.0 0.0 0.00 0.00 0.00 45 1016.9
20260501223756 55 310 1.0 1.0 0.00 0.00 0.00 42 1016.6
20260501223253 56 314 1.0 1.0 0.00 0.00 0.00 45 1016.6
20260501222749 56 314 3.0 3.0 0.00 0.00 0.00 45 1016.9
20260501222246 56 314 3.0 3.0 0.00 0.00 0.00 43 1016.7
20260501221743 56 307 2.0 5.0 0.00 0.00 0.00 45 1016.7
20260501221241 56 297 2.0 2.0 0.00 0.00 0.00 46 1016.6
20260501220738 56 260 2.0 2.0 0.00 0.00 0.00 44 1016.4
20260501220235 56 302 2.0 2.0 0.00 0.00 0.00 40 1016.6
20260501215732 56 305 2.0 3.0 0.00 0.00 0.00 45 1016.5
20260501215227 56 313 1.0 2.0 0.00 0.00 0.00 43 1016.4
20260501214723 56 313 1.0 1.0 0.00 0.00 0.00 42 1016.7
20260501214219 56 293 1.0 1.0 0.00 0.00 0.00 44 1016.4
20260501213716 56 308 3.0 3.0 0.00 0.00 0.00 42 1016.5
20260501213211 56 308 1.0 2.0 0.00 0.00 0.00 43 1016.2
20260501212702 56 276 3.0 3.0 0.00 0.00 0.00 46 1016.7
20260501212159 56 310 2.0 3.0 0.00 0.00 0.00 45 1016.6
20260501211655 57 312 3.0 3.0 0.00 0.00 0.00 42 1016.4
20260501211153 57 298 2.0 2.0 0.00 0.00 0.00 42 1016.7
20260501210650 57 312 1.0 2.0 0.00 0.00 0.00 44 1016.6
20260501210147 57 314 1.0 2.0 0.00 0.00 0.00 44 1016.7
20260501205643 56 314 1.0 2.0 0.00 0.00 0.00 43 1016.8
20260501205140 56 307 4.0 5.0 0.00 0.00 0.00 41 1016.6